Data supplied by UK-AIR on 12/5/2023
All Data GMT hour ending 
Status: R =Ratified P=Provisional,P*=As supplied
,,Burton-on-Trent Horninglow,,,,,,,,,,,,,,,,,,,,,,,
Date,time,"PM<sub>10</sub> particulate matter (Hourly measured)",status,unit,"Nitric oxide",status,unit,"Nitrogen dioxide",status,unit,"Nitrogen oxides as nitrogen dioxide",status,unit,"PM<sub>2.5</sub> particulate matter (Hourly measured)",status,unit
 
01-01-2022,01:00,,,,0.87401,R,ugm-3,6.54432,R,ugm-3,7.88445,R,ugm-3,,,
01-01-2022,02:00,,,,,,,,,,,,,,,
01-01-2022,03:00,,,,2.11550,R,ugm-3,4.61063,R,ugm-3,7.85436,R,ugm-3,,,
01-01-2022,04:00,,,,1.72816,R,ugm-3,3.44409,R,ugm-3,6.09390,R,ugm-3,,,
01-01-2022,05:00,,,,1.75795,R,ugm-3,2.17963,R,ugm-3,4.87512,R,ugm-3,,,
01-01-2022,06:00,,,,1.99632,R,ugm-3,1.63358,R,ugm-3,4.69456,R,ugm-3,,,
01-01-2022,07:00,,,,1.93673,R,ugm-3,2.44719,R,ugm-3,5.41680,R,ugm-3,,,
01-01-2022,08:00,,,,2.29428,R,ugm-3,3.29829,R,ugm-3,6.81614,R,ugm-3,,,
01-01-2022,09:00,,,,1.78775,R,ugm-3,4.75206,R,ugm-3,7.49324,R,ugm-3,,,
01-01-2022,10:00,,,,1.50966,R,ugm-3,4.78725,R,ugm-3,7.10202,R,ugm-3,,,
01-01-2022,11:00,,,,,,,,,,,,,,,
01-01-2022,12:00,,,,,,,,,,,,,,,
01-01-2022,13:00,,,,2.41346,R,ugm-3,6.68161,R,ugm-3,10.38220,R,ugm-3,,,
01-01-2022,14:00,,,,2.11550,R,ugm-3,6.91277,R,ugm-3,10.15650,R,ugm-3,,,
01-01-2022,15:00,,,,2.35387,R,ugm-3,7.35980,R,ugm-3,10.96902,R,ugm-3,,,
01-01-2022,16:00,,,,3.36693,R,ugm-3,8.15375,R,ugm-3,13.31629,R,ugm-3,,,
01-01-2022,17:00,,,,3.54570,R,ugm-3,10.85887,R,ugm-3,16.29553,R,ugm-3,,,
01-01-2022,18:00,,,,4.46937,R,ugm-3,14.76911,R,ugm-3,21.62205,R,ugm-3,,,
01-01-2022,19:00,,,,3.99264,R,ugm-3,13.69449,R,ugm-3,19.81645,R,ugm-3,,,
01-01-2022,20:00,,,,1.72816,R,ugm-3,11.11789,R,ugm-3,13.76769,R,ugm-3,,,
01-01-2022,21:00,,,,0.77469,R,ugm-3,8.02071,R,ugm-3,9.20856,R,ugm-3,,,
01-01-2022,22:00,,,,2.23469,R,ugm-3,8.44534,R,ugm-3,11.87182,R,ugm-3,,,
01-01-2022,23:00,,,,3.00938,R,ugm-3,8.38600,R,ugm-3,13.00031,R,ugm-3,,,
01-01-2022,24:00,,,,1.34081,R,ugm-3,7.37837,R,ugm-3,9.43426,R,ugm-3,,,
02-01-2022,01:00,,,,1.51070,R,ugm-3,9.66844,R,ugm-3,11.98482,R,ugm-3,,,
02-01-2022,02:00,,,,,,,,,,,,,,,
02-01-2022,03:00,,,,0.83486,R,ugm-3,4.00466,R,ugm-3,5.28476,R,ugm-3,,,
02-01-2022,04:00,,,,0.59633,R,ugm-3,3.69287,R,ugm-3,4.60723,R,ugm-3,,,
02-01-2022,05:00,,,,1.55046,R,ugm-3,3.35912,R,ugm-3,5.73645,R,ugm-3,,,
02-01-2022,06:00,,,,2.29587,R,ugm-3,1.44829,R,ugm-3,4.96858,R,ugm-3,,,
02-01-2022,07:00,,,,1.49083,R,ugm-3,2.54718,R,ugm-3,4.83307,R,ugm-3,,,
02-01-2022,08:00,,,,2.20642,R,ugm-3,10.75474,R,ugm-3,14.13787,R,ugm-3,,,
02-01-2022,09:00,,,,0.98395,R,ugm-3,13.44222,R,ugm-3,14.95091,R,ugm-3,,,
02-01-2022,10:00,,,,1.78899,R,ugm-3,15.73101,R,ugm-3,18.47408,R,ugm-3,,,
02-01-2022,11:00,,,,1.46101,R,ugm-3,9.23272,R,ugm-3,11.47290,R,ugm-3,,,
02-01-2022,12:00,,,,1.63991,R,ugm-3,10.17798,R,ugm-3,12.69247,R,ugm-3,,,
02-01-2022,13:00,,,,2.35550,R,ugm-3,8.58388,R,ugm-3,12.19561,R,ugm-3,,,
02-01-2022,14:00,,,,3.01147,R,ugm-3,11.64329,R,ugm-3,16.26081,R,ugm-3,,,
02-01-2022,15:00,,,,3.96560,R,ugm-3,12.89045,R,ugm-3,18.97094,R,ugm-3,,,
02-01-2022,16:00,,,,5.06881,R,ugm-3,11.10855,R,ugm-3,18.88061,R,ugm-3,,,
02-01-2022,17:00,,,,3.72706,R,ugm-3,7.33907,R,ugm-3,13.05382,R,ugm-3,,,
02-01-2022,18:00,,,,1.84862,R,ugm-3,11.52920,R,ugm-3,14.36372,R,ugm-3,,,
02-01-2022,19:00,,,,0.98395,R,ugm-3,17.59776,R,ugm-3,19.10645,R,ugm-3,,,
02-01-2022,20:00,,,,0.50688,R,ugm-3,6.17881,R,ugm-3,6.95601,R,ugm-3,,,
02-01-2022,21:00,,,,0.74541,R,ugm-3,4.36766,R,ugm-3,5.51061,R,ugm-3,,,
02-01-2022,22:00,,,,0.92431,R,ugm-3,3.91267,R,ugm-3,5.32993,R,ugm-3,,,
02-01-2022,23:00,,,,1.46101,R,ugm-3,12.43972,R,ugm-3,14.67990,R,ugm-3,,,
02-01-2022,24:00,,,,1.61009,R,ugm-3,2.27396,R,ugm-3,4.74274,R,ugm-3,,,
03-01-2022,01:00,,,,0.87522,R,ugm-3,5.28703,R,ugm-3,6.62902,R,ugm-3,,,
03-01-2022,02:00,,,,0.55696,R,ugm-3,2.03867,R,ugm-3,2.89266,R,ugm-3,,,
03-01-2022,03:00,,,,1.19349,R,ugm-3,0.97228,R,ugm-3,2.80227,R,ugm-3,,,
03-01-2022,04:00,,,,0.89512,R,ugm-3,,,,,,,,,
03-01-2022,05:00,,,,0.95479,R,ugm-3,1.33828,R,ugm-3,2.80227,R,ugm-3,,,
03-01-2022,06:00,,,,1.10398,R,ugm-3,1.56151,R,ugm-3,3.25425,R,ugm-3,,,
03-01-2022,07:00,,,,1.13381,R,ugm-3,2.32932,R,ugm-3,4.06781,R,ugm-3,,,
03-01-2022,08:00,,,,0.98463,R,ugm-3,3.50722,R,ugm-3,5.01696,R,ugm-3,,,
03-01-2022,09:00,,,,1.31284,R,ugm-3,5.53505,R,ugm-3,7.54804,R,ugm-3,,,
03-01-2022,10:00,,,,1.31284,R,ugm-3,6.57460,R,ugm-3,8.58759,R,ugm-3,,,
03-01-2022,11:00,,,,1.76039,R,ugm-3,5.52677,R,ugm-3,8.22601,R,ugm-3,,,
03-01-2022,12:00,,,,2.44665,R,ugm-3,6.37284,R,ugm-3,10.12432,R,ugm-3,,,
03-01-2022,13:00,,,,2.59584,R,ugm-3,7.54522,R,ugm-3,11.52545,R,ugm-3,,,
03-01-2022,14:00,,,,2.71518,R,ugm-3,6.59386,R,ugm-3,10.75709,R,ugm-3,,,
03-01-2022,15:00,,,,3.04339,R,ugm-3,7.85333,R,ugm-3,12.51980,R,ugm-3,,,
03-01-2022,16:00,,,,3.61030,R,ugm-3,10.37392,R,ugm-3,15.90964,R,ugm-3,,,
03-01-2022,17:00,,,,2.50632,R,ugm-3,18.39436,R,ugm-3,22.23734,R,ugm-3,,,
03-01-2022,18:00,,,,2.11844,R,ugm-3,31.23772,R,ugm-3,34.48595,R,ugm-3,,,
03-01-2022,19:00,,,,0.83544,R,ugm-3,17.83769,R,ugm-3,19.11869,R,ugm-3,,,
03-01-2022,20:00,,,,1.37251,R,ugm-3,26.77693,R,ugm-3,28.88142,R,ugm-3,,,
03-01-2022,21:00,,,,1.10398,R,ugm-3,20.95138,R,ugm-3,22.64412,R,ugm-3,,,
03-01-2022,22:00,,,,1.82007,R,ugm-3,24.01159,R,ugm-3,26.80232,R,ugm-3,,,
03-01-2022,23:00,,,,1.49186,R,ugm-3,23.38489,R,ugm-3,25.67238,R,ugm-3,,,
03-01-2022,24:00,,,,1.13381,R,ugm-3,19.50450,R,ugm-3,21.24299,R,ugm-3,,,
04-01-2022,01:00,,,,0.95545,R,ugm-3,14.51512,R,ugm-3,15.98013,R,ugm-3,,,
04-01-2022,02:00,,,,2.26920,R,ugm-3,43.37555,R,ugm-3,46.85494,R,ugm-3,,,
04-01-2022,03:00,,,,1.16446,R,ugm-3,22.45607,R,ugm-3,24.24155,R,ugm-3,,,
04-01-2022,04:00,,,,0.98531,R,ugm-3,4.77573,R,ugm-3,6.28652,R,ugm-3,,,
04-01-2022,05:00,,,,0.65687,R,ugm-3,4.19389,R,ugm-3,5.20108,R,ugm-3,,,
04-01-2022,06:00,,,,0.56730,R,ugm-3,5.86894,R,ugm-3,6.73879,R,ugm-3,,,
04-01-2022,07:00,,,,1.34360,R,ugm-3,8.20631,R,ugm-3,10.26648,R,ugm-3,,,
04-01-2022,08:00,,,,2.74693,R,ugm-3,18.98944,R,ugm-3,23.20134,R,ugm-3,,,
04-01-2022,09:00,,,,4.09053,R,ugm-3,24.21079,R,ugm-3,30.48284,R,ugm-3,,,
04-01-2022,10:00,,,,5.25499,R,ugm-3,23.28462,R,ugm-3,31.34215,R,ugm-3,,,
04-01-2022,11:00,,,,5.25499,R,ugm-3,17.72173,R,ugm-3,25.77926,R,ugm-3,,,
04-01-2022,12:00,,,,4.98627,R,ugm-3,12.66132,R,ugm-3,20.30682,R,ugm-3,,,
04-01-2022,13:00,,,,4.35925,R,ugm-3,11.22571,R,ugm-3,17.90980,R,ugm-3,,,
04-01-2022,14:00,,,,4.29953,R,ugm-3,10.50319,R,ugm-3,17.09572,R,ugm-3,,,
04-01-2022,15:00,,,,4.00096,R,ugm-3,8.15695,R,ugm-3,14.29166,R,ugm-3,,,
04-01-2022,16:00,,,,3.91138,R,ugm-3,13.49537,R,ugm-3,19.49274,R,ugm-3,,,
04-01-2022,17:00,,,,3.46351,R,ugm-3,20.96611,R,ugm-3,26.27676,R,ugm-3,,,
04-01-2022,18:00,,,,2.68721,R,ugm-3,19.89509,R,ugm-3,24.01542,R,ugm-3,,,
04-01-2022,19:00,,,,2.20948,R,ugm-3,18.45671,R,ugm-3,21.84453,R,ugm-3,,,
04-01-2022,20:00,,,,2.00048,R,ugm-3,10.31977,R,ugm-3,13.38713,R,ugm-3,,,
04-01-2022,21:00,,,,1.70190,R,ugm-3,7.02376,R,ugm-3,9.63330,R,ugm-3,,,
04-01-2022,22:00,,,,1.73176,R,ugm-3,6.25435,R,ugm-3,8.90967,R,ugm-3,,,
04-01-2022,23:00,,,,1.64218,R,ugm-3,6.93442,R,ugm-3,9.45240,R,ugm-3,,,
04-01-2022,24:00,,,,1.37346,R,ugm-3,4.90421,R,ugm-3,7.01015,R,ugm-3,,,
05-01-2022,01:00,,,,0.59757,R,ugm-3,4.21272,R,ugm-3,5.12898,R,ugm-3,,,
05-01-2022,02:00,,,,0.67725,R,ugm-3,3.18543,R,ugm-3,4.22387,R,ugm-3,,,
05-01-2022,03:00,,,,0.53782,R,ugm-3,2.79582,R,ugm-3,3.62046,R,ugm-3,,,
05-01-2022,04:00,,,,0.50794,R,ugm-3,2.52484,R,ugm-3,3.30367,R,ugm-3,,,
05-01-2022,05:00,,,,0.59757,R,ugm-3,3.65456,R,ugm-3,4.57083,R,ugm-3,,,
05-01-2022,06:00,,,,1.28478,R,ugm-3,7.62424,R,ugm-3,9.59421,R,ugm-3,,,
05-01-2022,07:00,,,,3.40616,R,ugm-3,18.40078,R,ugm-3,23.62348,R,ugm-3,,,
05-01-2022,08:00,,,,3.82446,R,ugm-3,22.78278,R,ugm-3,28.64686,R,ugm-3,,,
05-01-2022,09:00,,,,7.82818,R,ugm-3,37.73297,R,ugm-3,49.73602,R,ugm-3,,,
05-01-2022,10:00,,,,5.94583,R,ugm-3,31.52280,R,ugm-3,40.63962,R,ugm-3,,,
05-01-2022,11:00,,,,7.91782,R,ugm-3,28.31811,R,ugm-3,40.45860,R,ugm-3,,,
05-01-2022,12:00,,,,3.34640,R,ugm-3,10.52740,R,ugm-3,15.65847,R,ugm-3,,,
05-01-2022,13:00,,,,3.19701,R,ugm-3,9.35354,R,ugm-3,14.25555,R,ugm-3,,,
05-01-2022,14:00,,,,3.82446,R,ugm-3,11.24257,R,ugm-3,17.10666,R,ugm-3,,,
05-01-2022,15:00,,,,3.85433,R,ugm-3,13.14275,R,ugm-3,19.05265,R,ugm-3,,,
05-01-2022,16:00,,,,5.40802,R,ugm-3,24.38244,R,ugm-3,32.67462,R,ugm-3,,,
05-01-2022,17:00,,,,5.82632,R,ugm-3,32.33964,R,ugm-3,41.27320,R,ugm-3,,,
05-01-2022,18:00,,,,14.90940,R,ugm-3,50.67975,R,ugm-3,73.54052,R,ugm-3,,,
05-01-2022,19:00,,,,15.92527,R,ugm-3,51.52066,R,ugm-3,75.93907,R,ugm-3,,,
05-01-2022,20:00,,,,8.54527,R,ugm-3,46.63496,R,ugm-3,59.73753,R,ugm-3,,,
05-01-2022,21:00,,,,7.38001,R,ugm-3,41.76909,R,ugm-3,53.08494,R,ugm-3,,,
05-01-2022,22:00,,,,47.95509,R,ugm-3,53.09534,R,ugm-3,126.62546,R,ugm-3,,,
05-01-2022,23:00,,,,66.95786,R,ugm-3,49.16560,R,ugm-3,151.83288,R,ugm-3,,,
05-01-2022,24:00,,,,54.82716,R,ugm-3,45.45468,R,ugm-3,129.52182,R,ugm-3,,,
06-01-2022,01:00,,,,57.88495,R,ugm-3,42.87165,R,ugm-3,131.62733,R,ugm-3,,,
06-01-2022,02:00,,,,42.45694,R,ugm-3,38.39076,R,ugm-3,103.49048,R,ugm-3,,,
06-01-2022,03:00,,,,51.15762,R,ugm-3,40.34101,R,ugm-3,118.78159,R,ugm-3,,,
06-01-2022,04:00,,,,21.91615,R,ugm-3,39.66624,R,ugm-3,73.27054,R,ugm-3,,,
06-01-2022,05:00,,,,24.87618,R,ugm-3,42.19200,R,ugm-3,80.33494,R,ugm-3,,,
06-01-2022,06:00,,,,29.06207,R,ugm-3,46.27976,R,ugm-3,90.84098,R,ugm-3,,,
06-01-2022,07:00,,,,28.73318,R,ugm-3,47.32747,R,ugm-3,91.38439,R,ugm-3,,,
06-01-2022,08:00,,,,20.39129,R,ugm-3,46.07995,R,ugm-3,77.34616,R,ugm-3,,,
06-01-2022,09:00,,,,45.77575,R,ugm-3,56.92546,R,ugm-3,127.11397,R,ugm-3,,,
06-01-2022,10:00,,,,22.60383,R,ugm-3,47.17061,R,ugm-3,81.82933,R,ugm-3,,,
06-01-2022,11:00,,,,4.54469,R,ugm-3,30.48197,R,ugm-3,37.45039,R,ugm-3,,,
06-01-2022,12:00,,,,2.87033,R,ugm-3,22.27154,R,ugm-3,26.67265,R,ugm-3,,,
06-01-2022,13:00,,,,4.12610,R,ugm-3,29.99168,R,ugm-3,36.31828,R,ugm-3,,,
06-01-2022,14:00,,,,3.88690,R,ugm-3,23.97331,R,ugm-3,29.93314,R,ugm-3,,,
06-01-2022,15:00,,,,2.51154,R,ugm-3,17.74980,R,ugm-3,21.60077,R,ugm-3,,,
06-01-2022,16:00,,,,2.90023,R,ugm-3,22.54269,R,ugm-3,26.98964,R,ugm-3,,,
06-01-2022,17:00,,,,1.79396,R,ugm-3,24.60123,R,ugm-3,27.35192,R,ugm-3,,,
06-01-2022,18:00,,,,2.51154,R,ugm-3,29.47852,R,ugm-3,33.32949,R,ugm-3,,,
06-01-2022,19:00,,,,2.09295,R,ugm-3,29.66750,R,ugm-3,32.87664,R,ugm-3,,,
06-01-2022,20:00,,,,1.79396,R,ugm-3,30.66937,R,ugm-3,33.42006,R,ugm-3,,,
06-01-2022,21:00,,,,1.22587,R,ugm-3,25.74399,R,ugm-3,27.62363,R,ugm-3,,,
06-01-2022,22:00,,,,1.01657,R,ugm-3,13.38520,R,ugm-3,14.94393,R,ugm-3,,,
06-01-2022,23:00,,,,0.65778,R,ugm-3,8.22948,R,ugm-3,9.23807,R,ugm-3,,,
06-01-2022,24:00,,,,0.65778,R,ugm-3,15.52031,R,ugm-3,16.52889,R,ugm-3,,,
07-01-2022,01:00,,,,0.35904,R,ugm-3,14.07066,R,ugm-3,14.62118,R,ugm-3,,,
07-01-2022,02:00,,,,0.95744,R,ugm-3,9.40721,R,ugm-3,10.87526,R,ugm-3,,,
07-01-2022,03:00,,,,0.65824,R,ugm-3,8.77845,R,ugm-3,9.78773,R,ugm-3,,,
07-01-2022,04:00,,,,0.56848,R,ugm-3,10.09423,R,ugm-3,10.96588,R,ugm-3,,,
07-01-2022,05:00,,,,0.59840,R,ugm-3,9.64053,R,ugm-3,10.55806,R,ugm-3,,,
07-01-2022,06:00,,,,0.86768,R,ugm-3,19.55913,R,ugm-3,20.88955,R,ugm-3,,,
07-01-2022,07:00,,,,1.34640,R,ugm-3,15.74378,R,ugm-3,17.80823,R,ugm-3,,,
07-01-2022,08:00,,,,2.84240,R,ugm-3,24.18927,R,ugm-3,28.54755,R,ugm-3,,,
07-01-2022,09:00,,,,5.35567,R,ugm-3,34.24690,R,ugm-3,42.45881,R,ugm-3,,,
07-01-2022,10:00,,,,3.65023,R,ugm-3,23.17717,R,ugm-3,28.77411,R,ugm-3,,,
07-01-2022,11:00,,,,3.71007,R,ugm-3,14.79303,R,ugm-3,20.48173,R,ugm-3,,,
07-01-2022,12:00,,,,3.47071,R,ugm-3,11.21777,R,ugm-3,16.53945,R,ugm-3,,,
07-01-2022,13:00,,,,4.06911,R,ugm-3,14.60502,R,ugm-3,20.84424,R,ugm-3,,,
07-01-2022,14:00,,,,4.30847,R,ugm-3,18.81468,R,ugm-3,25.42091,R,ugm-3,,,
07-01-2022,15:00,,,,4.75727,R,ugm-3,23.56416,R,ugm-3,30.85854,R,ugm-3,,,
07-01-2022,16:00,,,,4.27855,R,ugm-3,24.47944,R,ugm-3,31.03979,R,ugm-3,,,
07-01-2022,17:00,,,,2.75263,R,ugm-3,18.16425,R,ugm-3,22.38490,R,ugm-3,,,
07-01-2022,18:00,,,,6.22335,R,ugm-3,45.19645,R,ugm-3,54.73879,R,ugm-3,,,
07-01-2022,19:00,,,,2.66287,R,ugm-3,26.63958,R,ugm-3,30.72260,R,ugm-3,,,
07-01-2022,20:00,,,,1.58576,R,ugm-3,11.61575,R,ugm-3,14.04721,R,ugm-3,,,
07-01-2022,21:00,,,,1.19680,R,ugm-3,7.49953,R,ugm-3,9.33460,R,ugm-3,,,
07-01-2022,22:00,,,,2.75263,R,ugm-3,21.15495,R,ugm-3,25.37560,R,ugm-3,,,
07-01-2022,23:00,,,,1.01728,R,ugm-3,24.35956,R,ugm-3,25.91936,R,ugm-3,,,
07-01-2022,24:00,,,,0.89760,R,ugm-3,21.46174,R,ugm-3,22.83804,R,ugm-3,,,
08-01-2022,01:00,,,,0.59881,R,ugm-3,18.12568,R,ugm-3,19.04385,R,ugm-3,,,
08-01-2022,02:00,,,,0.63873,R,ugm-3,14.01387,R,ugm-3,14.99325,R,ugm-3,,,
08-01-2022,03:00,,,,0.71858,R,ugm-3,13.49848,R,ugm-3,14.60028,R,ugm-3,,,
08-01-2022,04:00,,,,0.68863,R,ugm-3,15.31275,R,ugm-3,16.36864,R,ugm-3,,,
08-01-2022,05:00,,,,0.65869,R,ugm-3,9.01071,R,ugm-3,10.02069,R,ugm-3,,,
08-01-2022,06:00,,,,0.65869,R,ugm-3,9.19208,R,ugm-3,10.20206,R,ugm-3,,,
08-01-2022,07:00,,,,0.83834,R,ugm-3,12.13595,R,ugm-3,13.42138,R,ugm-3,,,
08-01-2022,08:00,,,,0.77846,R,ugm-3,10.50475,R,ugm-3,11.69837,R,ugm-3,,,
08-01-2022,09:00,,,,0.89822,R,ugm-3,9.86769,R,ugm-3,11.24494,R,ugm-3,,,
08-01-2022,10:00,,,,1.25751,R,ugm-3,12.53611,R,ugm-3,14.46426,R,ugm-3,,,
08-01-2022,11:00,,,,1.79644,R,ugm-3,13.84085,R,ugm-3,16.59535,R,ugm-3,,,
08-01-2022,12:00,,,,2.03596,R,ugm-3,16.23948,R,ugm-3,19.36125,R,ugm-3,,,
08-01-2022,13:00,,,,2.12579,R,ugm-3,13.24518,R,ugm-3,16.50467,R,ugm-3,,,
08-01-2022,14:00,,,,2.57489,R,ugm-3,17.22683,R,ugm-3,21.17495,R,ugm-3,,,
08-01-2022,15:00,,,,2.21561,R,ugm-3,15.78266,R,ugm-3,19.17988,R,ugm-3,,,
08-01-2022,16:00,,,,2.78448,R,ugm-3,30.64425,R,ugm-3,34.91372,R,ugm-3,,,
08-01-2022,17:00,,,,2.75454,R,ugm-3,24.52358,R,ugm-3,28.74714,R,ugm-3,,,
08-01-2022,18:00,,,,1.49703,R,ugm-3,15.16145,R,ugm-3,17.45686,R,ugm-3,,,
08-01-2022,19:00,,,,0.86828,R,ugm-3,9.77757,R,ugm-3,11.10891,R,ugm-3,,,
08-01-2022,20:00,,,,1.01798,R,ugm-3,12.94872,R,ugm-3,14.50960,R,ugm-3,,,
08-01-2022,21:00,,,,1.19763,R,ugm-3,15.39382,R,ugm-3,17.23015,R,ugm-3,,,
08-01-2022,22:00,,,,0.89822,R,ugm-3,11.18262,R,ugm-3,12.55987,R,ugm-3,,,
08-01-2022,23:00,,,,0.74852,R,ugm-3,6.65120,R,ugm-3,7.79891,R,ugm-3,,,
08-01-2022,24:00,,,,0.65869,R,ugm-3,6.56221,R,ugm-3,7.57220,R,ugm-3,,,
09-01-2022,01:00,,,,0.71907,R,ugm-3,4.46300,R,ugm-3,5.56556,R,ugm-3,,,
09-01-2022,02:00,,,,0.55928,R,ugm-3,4.34504,R,ugm-3,5.20259,R,ugm-3,,,
09-01-2022,03:00,,,,0.56927,R,ugm-3,3.93651,R,ugm-3,4.80937,R,ugm-3,,,
09-01-2022,04:00,,,,0.59923,R,ugm-3,4.97948,R,ugm-3,5.89829,R,ugm-3,,,
09-01-2022,05:00,,,,0.50934,R,ugm-3,3.07559,R,ugm-3,3.85657,R,ugm-3,,,
09-01-2022,06:00,,,,0.59923,R,ugm-3,6.34063,R,ugm-3,7.25943,R,ugm-3,,,
09-01-2022,07:00,,,,0.71907,R,ugm-3,12.59961,R,ugm-3,13.70217,R,ugm-3,,,
09-01-2022,08:00,,,,0.80896,R,ugm-3,21.80830,R,ugm-3,23.04869,R,ugm-3,,,
09-01-2022,09:00,,,,1.76772,R,ugm-3,29.09491,R,ugm-3,31.80537,R,ugm-3,,,
09-01-2022,10:00,,,,3.14594,R,ugm-3,23.30658,R,ugm-3,28.13028,R,ugm-3,,,
09-01-2022,11:00,,,,4.85373,R,ugm-3,23.09268,R,ugm-3,30.53497,R,ugm-3,,,
09-01-2022,12:00,,,,2.96617,R,ugm-3,14.32645,R,ugm-3,18.87451,R,ugm-3,,,
09-01-2022,13:00,,,,2.99613,R,ugm-3,11.60360,R,ugm-3,16.19760,R,ugm-3,,,
09-01-2022,14:00,,,,3.08602,R,ugm-3,10.37686,R,ugm-3,15.10869,R,ugm-3,,,
09-01-2022,15:00,,,,2.93621,R,ugm-3,12.14919,R,ugm-3,16.65131,R,ugm-3,,,
09-01-2022,16:00,,,,2.63660,R,ugm-3,15.28550,R,ugm-3,19.32823,R,ugm-3,,,
09-01-2022,17:00,,,,3.20586,R,ugm-3,39.41230,R,ugm-3,44.32788,R,ugm-3,,,
09-01-2022,18:00,,,,2.39691,R,ugm-3,44.87222,R,ugm-3,48.54743,R,ugm-3,,,
09-01-2022,19:00,,,,4.94362,R,ugm-3,53.98892,R,ugm-3,61.56903,R,ugm-3,,,
09-01-2022,20:00,,,,5.72261,R,ugm-3,58.69276,R,ugm-3,67.46731,R,ugm-3,,,
09-01-2022,21:00,,,,5.99226,R,ugm-3,59.86730,R,ugm-3,69.05531,R,ugm-3,,,
09-01-2022,22:00,,,,4.04478,R,ugm-3,50.37626,R,ugm-3,56.57817,R,ugm-3,,,
09-01-2022,23:00,,,,2.15721,R,ugm-3,43.10729,R,ugm-3,46.41497,R,ugm-3,,,
09-01-2022,24:00,,,,6.98099,R,ugm-3,50.91037,R,ugm-3,61.61440,R,ugm-3,,,
10-01-2022,01:00,,,,5.19688,R,ugm-3,54.62352,R,ugm-3,62.59196,R,ugm-3,,,
10-01-2022,02:00,,,,6.67599,R,ugm-3,50.17636,R,ugm-3,60.41274,R,ugm-3,,,
10-01-2022,03:00,,,,5.75654,R,ugm-3,45.56305,R,ugm-3,54.38963,R,ugm-3,,,
10-01-2022,04:00,,,,4.31741,R,ugm-3,39.41603,R,ugm-3,46.03596,R,ugm-3,,,
10-01-2022,05:00,,,,2.09874,R,ugm-3,34.32807,R,ugm-3,37.54610,R,ugm-3,,,
10-01-2022,06:00,,,,4.82710,R,ugm-3,36.59149,R,ugm-3,43.99295,R,ugm-3,,,
10-01-2022,07:00,,,,16.13031,R,ugm-3,45.72855,R,ugm-3,70.46135,R,ugm-3,,,
10-01-2022,08:00,,,,29.59223,R,ugm-3,48.01441,R,ugm-3,93.38853,R,ugm-3,,,
10-01-2022,09:00,,,,85.26880,R,ugm-3,57.21380,R,ugm-3,187.95747,R,ugm-3,,,
10-01-2022,10:00,,,,34.95901,R,ugm-3,49.41034,R,ugm-3,103.01341,R,ugm-3,,,
10-01-2022,11:00,,,,7.46552,R,ugm-3,37.94862,R,ugm-3,49.39559,R,ugm-3,,,
10-01-2022,12:00,,,,6.89586,R,ugm-3,36.50667,R,ugm-3,47.08017,R,ugm-3,,,
10-01-2022,13:00,,,,5.00699,R,ugm-3,29.32401,R,ugm-3,37.00129,R,ugm-3,,,
10-01-2022,14:00,,,,5.03698,R,ugm-3,30.18604,R,ugm-3,37.90930,R,ugm-3,,,
10-01-2022,15:00,,,,4.70717,R,ugm-3,31.37274,R,ugm-3,38.59030,R,ugm-3,,,
10-01-2022,16:00,,,,5.96642,R,ugm-3,33.93656,R,ugm-3,43.08494,R,ugm-3,,,
10-01-2022,17:00,,,,4.34739,R,ugm-3,34.46682,R,ugm-3,41.13272,R,ugm-3,,,
10-01-2022,18:00,,,,4.61723,R,ugm-3,35.95989,R,ugm-3,43.03954,R,ugm-3,,,
10-01-2022,19:00,,,,2.51849,R,ugm-3,26.82901,R,ugm-3,30.69064,R,ugm-3,,,
10-01-2022,20:00,,,,2.00879,R,ugm-3,24.06931,R,ugm-3,27.14941,R,ugm-3,,,
10-01-2022,21:00,,,,1.13932,R,ugm-3,19.86364,R,ugm-3,21.61057,R,ugm-3,,,
10-01-2022,22:00,,,,1.37917,R,ugm-3,21.31188,R,ugm-3,23.42658,R,ugm-3,,,
10-01-2022,23:00,,,,1.31921,R,ugm-3,20.99522,R,ugm-3,23.01798,R,ugm-3,,,
10-01-2022,24:00,,,,1.10933,R,ugm-3,16.41379,R,ugm-3,18.11474,R,ugm-3,,,
11-01-2022,01:00,,,,1.08010,R,ugm-3,13.66869,R,ugm-3,15.32481,R,ugm-3,,,
11-01-2022,02:00,,,,0.76007,R,ugm-3,10.64619,R,ugm-3,11.81162,R,ugm-3,,,
11-01-2022,03:00,,,,0.81007,R,ugm-3,9.38836,R,ugm-3,10.63045,R,ugm-3,,,
11-01-2022,04:00,,,,0.78007,R,ugm-3,9.70694,R,ugm-3,10.90303,R,ugm-3,,,
11-01-2022,05:00,,,,2.34021,R,ugm-3,19.48981,R,ugm-3,23.07808,R,ugm-3,,,
11-01-2022,06:00,,,,3.03027,R,ugm-3,20.33976,R,ugm-3,24.98611,R,ugm-3,,,
11-01-2022,07:00,,,,2.46022,R,ugm-3,18.44264,R,ugm-3,22.21492,R,ugm-3,,,
11-01-2022,08:00,,,,9.09081,R,ugm-3,47.20877,R,ugm-3,61.14782,R,ugm-3,,,
11-01-2022,09:00,,,,11.52103,R,ugm-3,48.52514,R,ugm-3,66.19047,R,ugm-3,,,
11-01-2022,10:00,,,,5.40048,R,ugm-3,31.74258,R,ugm-3,40.02320,R,ugm-3,,,
11-01-2022,11:00,,,,4.89044,R,ugm-3,29.75345,R,ugm-3,37.25202,R,ugm-3,,,
11-01-2022,12:00,,,,6.12055,R,ugm-3,28.45789,R,ugm-3,37.84260,R,ugm-3,,,
11-01-2022,13:00,,,,3.99036,R,ugm-3,20.50310,R,ugm-3,26.62156,R,ugm-3,,,
11-01-2022,14:00,,,,4.71042,R,ugm-3,22.57907,R,ugm-3,29.80161,R,ugm-3,,,
11-01-2022,15:00,,,,5.76052,R,ugm-3,26.51132,R,ugm-3,35.34399,R,ugm-3,,,
11-01-2022,16:00,,,,6.45058,R,ugm-3,31.08647,R,ugm-3,40.97722,R,ugm-3,,,
11-01-2022,17:00,,,,9.54085,R,ugm-3,40.88548,R,ugm-3,55.51459,R,ugm-3,,,
11-01-2022,18:00,,,,10.17091,R,ugm-3,48.14211,R,ugm-3,63.73729,R,ugm-3,,,
11-01-2022,19:00,,,,35.52318,R,ugm-3,51.88185,R,ugm-3,106.34996,R,ugm-3,,,
11-01-2022,20:00,,,,71.97644,R,ugm-3,49.45789,R,ugm-3,159.82023,R,ugm-3,,,
11-01-2022,21:00,,,,110.40988,R,ugm-3,43.67971,R,ugm-3,212.97250,R,ugm-3,,,
11-01-2022,22:00,,,,123.43105,R,ugm-3,46.47427,R,ugm-3,235.73257,R,ugm-3,,,
11-01-2022,23:00,,,,64.80580,R,ugm-3,33.24058,R,ugm-3,132.60809,R,ugm-3,,,
11-01-2022,24:00,,,,67.86607,R,ugm-3,33.04573,R,ugm-3,137.10559,R,ugm-3,,,
12-01-2022,01:00,,,,9.80764,R,ugm-3,34.29916,R,ugm-3,49.33732,R,ugm-3,,,
12-01-2022,02:00,,,,43.39378,R,ugm-3,35.95693,R,ugm-3,102.49313,R,ugm-3,,,
12-01-2022,03:00,,,,43.44382,R,ugm-3,34.89527,R,ugm-3,101.50820,R,ugm-3,,,
12-01-2022,04:00,,,,48.39768,R,ugm-3,36.61840,R,ugm-3,110.82713,R,ugm-3,,,
12-01-2022,05:00,,,,62.20843,R,ugm-3,36.12570,R,ugm-3,131.51062,R,ugm-3,,,
12-01-2022,06:00,,,,75.83904,R,ugm-3,37.95483,R,ugm-3,154.23973,R,ugm-3,,,
12-01-2022,07:00,,,,70.61497,R,ugm-3,39.28260,R,ugm-3,147.55737,R,ugm-3,,,
12-01-2022,08:00,,,,96.88542,R,ugm-3,44.32364,R,ugm-3,192.87922,R,ugm-3,,,
12-01-2022,09:00,,,,136.24606,R,ugm-3,50.38596,R,ugm-3,259.29367,R,ugm-3,,,
12-01-2022,10:00,,,,87.75832,R,ugm-3,48.13570,R,ugm-3,182.69658,R,ugm-3,,,
12-01-2022,11:00,,,,66.62186,R,ugm-3,44.95069,R,ugm-3,147.10279,R,ugm-3,,,
12-01-2022,12:00,,,,25.18961,R,ugm-3,36.38253,R,ugm-3,75.00606,R,ugm-3,,,
12-01-2022,13:00,,,,10.50818,R,ugm-3,26.43657,R,ugm-3,42.54889,R,ugm-3,,,
12-01-2022,14:00,,,,9.81764,R,ugm-3,30.67746,R,ugm-3,45.73097,R,ugm-3,,,
12-01-2022,15:00,,,,9.39732,R,ugm-3,31.82199,R,ugm-3,46.23101,R,ugm-3,,,
12-01-2022,16:00,,,,9.48739,R,ugm-3,35.77513,R,ugm-3,50.32225,R,ugm-3,,,
12-01-2022,17:00,,,,24.94942,R,ugm-3,58.11617,R,ugm-3,96.37142,R,ugm-3,,,
12-01-2022,18:00,,,,48.18751,R,ugm-3,68.35227,R,ugm-3,142.23876,R,ugm-3,,,
12-01-2022,19:00,,,,34.31671,R,ugm-3,56.52695,R,ugm-3,109.14518,R,ugm-3,,,
12-01-2022,20:00,,,,32.42524,R,ugm-3,48.51720,R,ugm-3,98.23521,R,ugm-3,,,
12-01-2022,21:00,,,,50.70948,R,ugm-3,43.98366,R,ugm-3,121.73711,R,ugm-3,,,
12-01-2022,22:00,,,,91.72140,R,ugm-3,48.78687,R,ugm-3,189.42439,R,ugm-3,,,
12-01-2022,23:00,,,,104.69150,R,ugm-3,45.44646,R,ugm-3,205.97118,R,ugm-3,,,
12-01-2022,24:00,,,,83.28483,R,ugm-3,40.76652,R,ugm-3,168.46816,R,ugm-3,,,
13-01-2022,01:00,,,,86.88742,R,ugm-3,34.04589,R,ugm-3,167.27141,R,ugm-3,,,
13-01-2022,02:00,,,,45.30644,R,ugm-3,37.33492,R,ugm-3,106.80383,R,ugm-3,,,
13-01-2022,03:00,,,,25.14688,R,ugm-3,37.45102,R,ugm-3,76.00903,R,ugm-3,,,
13-01-2022,04:00,,,,53.74882,R,ugm-3,37.17200,R,ugm-3,119.58571,R,ugm-3,,,
13-01-2022,05:00,,,,87.18786,R,ugm-3,36.79964,R,ugm-3,170.48583,R,ugm-3,,,
13-01-2022,06:00,,,,118.37359,R,ugm-3,39.06354,R,ugm-3,220.56718,R,ugm-3,,,
13-01-2022,07:00,,,,128.85897,R,ugm-3,44.95647,R,ugm-3,242.53747,R,ugm-3,,,
13-01-2022,08:00,,,,117.74267,R,ugm-3,45.85330,R,ugm-3,226.38954,R,ugm-3,,,
13-01-2022,09:00,,,,151.33193,R,ugm-3,51.34588,R,ugm-3,283.38493,R,ugm-3,,,
13-01-2022,10:00,,,,205.59150,R,ugm-3,57.07641,R,ugm-3,372.31231,R,ugm-3,,,
13-01-2022,11:00,,,,112.96566,R,ugm-3,42.71589,R,ugm-3,215.92749,R,ugm-3,,,
13-01-2022,12:00,,,,83.52249,R,ugm-3,43.28406,R,ugm-3,171.35009,R,ugm-3,,,
13-01-2022,13:00,,,,,,,,,,,,,,,
13-01-2022,14:00,,,,14.72159,R,ugm-3,33.74030,R,ugm-3,56.31309,R,ugm-3,,,
13-01-2022,15:00,,,,13.85031,R,ugm-3,35.71306,R,ugm-3,56.94991,R,ugm-3,,,
13-01-2022,16:00,,,,7.78141,R,ugm-3,30.64464,R,ugm-3,42.57597,R,ugm-3,,,
13-01-2022,17:00,,,,13.30952,R,ugm-3,45.91262,R,ugm-3,66.32026,R,ugm-3,,,
13-01-2022,18:00,,,,14.84177,R,ugm-3,51.88736,R,ugm-3,74.64441,R,ugm-3,,,
13-01-2022,19:00,,,,60.41860,R,ugm-3,56.19338,R,ugm-3,148.83395,R,ugm-3,,,
13-01-2022,20:00,,,,61.62037,R,ugm-3,47.89153,R,ugm-3,142.37477,R,ugm-3,,,
13-01-2022,21:00,,,,71.29455,R,ugm-3,44.06587,R,ugm-3,153.38266,R,ugm-3,,,
13-01-2022,22:00,,,,49.42248,R,ugm-3,38.21072,R,ugm-3,113.99079,R,ugm-3,,,
13-01-2022,23:00,,,,83.49244,R,ugm-3,38.82690,R,ugm-3,166.84686,R,ugm-3,,,
13-01-2022,24:00,,,,76.85270,R,ugm-3,34.31534,R,ugm-3,152.15451,R,ugm-3,,,
14-01-2022,01:00,,,,66.16619,R,ugm-3,33.75544,R,ugm-3,135.20886,R,ugm-3,,,
14-01-2022,02:00,,,,17.30254,R,ugm-3,34.10159,R,ugm-3,60.63178,R,ugm-3,,,
14-01-2022,03:00,,,,10.81409,R,ugm-3,36.85038,R,ugm-3,53.43175,R,ugm-3,,,
14-01-2022,04:00,,,,18.35391,R,ugm-3,37.29457,R,ugm-3,65.43684,R,ugm-3,,,
14-01-2022,05:00,,,,13.99824,R,ugm-3,37.15211,R,ugm-3,58.61577,R,ugm-3,,,
14-01-2022,06:00,,,,11.71526,R,ugm-3,36.92376,R,ugm-3,54.88691,R,ugm-3,,,
14-01-2022,07:00,,,,21.20763,R,ugm-3,36.96611,R,ugm-3,69.48402,R,ugm-3,,,
14-01-2022,08:00,,,,38.84060,R,ugm-3,39.66915,R,ugm-3,99.22390,R,ugm-3,,,
14-01-2022,09:00,,,,51.54715,R,ugm-3,40.10358,R,ugm-3,119.14144,R,ugm-3,,,
14-01-2022,10:00,,,,51.42699,R,ugm-3,38.60528,R,ugm-3,117.45891,R,ugm-3,,,
14-01-2022,11:00,,,,41.90459,R,ugm-3,35.51678,R,ugm-3,99.76959,R,ugm-3,,,
14-01-2022,12:00,,,,36.76790,R,ugm-3,35.29859,R,ugm-3,91.67524,R,ugm-3,,,
14-01-2022,13:00,,,,33.67387,R,ugm-3,37.35975,R,ugm-3,88.99229,R,ugm-3,,,
14-01-2022,14:00,,,,32.17191,R,ugm-3,37.75281,R,ugm-3,87.08239,R,ugm-3,,,